Meath Environmental Platform

Observations for Trim Market St

Time AQI Temp °C Hum % Pres Pa CO μg/m³ H₂S μg/m³ NO μg/m³ NO₂ μg/m³ O₃ μg/m³ SO₂ μg/m³ PM1 μg/m³ PM2.5 μg/m³ PM10 μg/m³
Saturday 11 July 2026
03:09 1 17.1 70 56,234 0.05 0 0 2.33 15.55 0 0 1.13 2.5
03:07 1 17.1 70 56,211 0.04 0 0 3.22 20.34 0 0 1.12 2.5
03:03 1 17.2 70 56,156 0.03 0 0 0 10.87 0 0.71 1.61 3.13
03:02 1 17.2 70 56,155 0 0 0.26 0 14.89 0 0 1.6 3.13
03:01 1 17.2 70 56,155 0.01 0 0 0.68 6.87 0 0 1.6 3.13
03:00 1 17.2 70 56,158 0.02 0 0 4.88 32.43 0 0 1.6 3.13
02:59 1 17.2 70 56,146 0.01 0 0.05 0.28 12.87 0 0 2.09 3.76
02:58 1 17.2 70 56,133 0.03 0 0 1.58 16.92 0 0 1.12 2.51
02:57 1 17.3 70 56,110 0 0 0 1.14 21.85 0 0 1.11 2.51
02:56 1 17.2 70 56,087 0.02 0 0 1.67 19.45 0 0.71 1.6 3.14
02:55 1 17.3 70 56,071 0.01 0 0 0.74 13.93 0 0 1.6 3.14
02:54 1 17.3 70 56,051 0.01 0 0 3.54 29.36 0 0 1.11 2.51
02:53 1 17.3 70 56,023 0.02 0 0 0 15.12 0 0 1.6 3.14
02:52 1 17.3 70 55,999 0.01 0 0 2.03 16.04 0 0 1.6 3.14
02:51 1 17.3 70 55,973 0.03 0 0 0.13 14.29 0 0 1.11 3.14
02:50 1 17.3 70 55,932 0.04 0 0 0.02 15.8 0 0 1.59 3.15
02:47 1 17.4 70 55,871 0.04 0 0 0.48 18.68 0 0 2.07 3.78
02:44 1 17.4 70 55,765 0.05 0 0 0.07 11.6 0 0.71 2.07 3.78
02:40 1 17.4 71 55,583 0.02 0 0 0 10.4 0 0 1.57 3.17
02:36 1 17.5 71 55,348 0.02 0 0 0 10.12 0 1.43 2.53 5.66